Weather History for KNUQ - August, 2007

Change the Weather History Date:

Monday, August 6, 2007

  Actual Average Record
Temperature  
Mean Temperature 64 °F 68 °F  
Max Temperature 71 °F 77 °F 95 °F (1983)
Min Temperature 59 °F 59 °F 49 °F (1950)
Degree Days  
Heating Degree Days 1    
Month to date heating degree days  
Since 1 June heating degree days  
Since 1 July heating degree days  
Cooling Degree Days 0    
Month to date cooling degree days  
Year to date cooling degree days  
Since 1 June cooling degree days  
Growing Degree Days 14 (Base 50)    
Moisture  
Dew Point 49 °F    
Average Humidity 62    
Maximum Humidity 72    
Minimum Humidity 49    
Precipitation  
Precipitation 0.00 in 0.00 in 0.02 in (2009)
Month to date precipitation 0.00  
Year to date precipitation 9.65  
Since 1 July precipitation 0.02  
Sea Level Pressure  
Sea Level Pressure 30.03 in    
Wind  
Wind Speed 6 mph (WNW)    
Max Wind Speed 14 mph    
Max Gust Speed 20 mph    
Visibility 10 miles    
Events      
T = Trace of Precipitation, MM = Missing Value Source: NWS Daily Summary

Daily Weather History Graph

Daily Weather History Graph

Search for Another Location

Airport or City:

Trip Planner

Search our weather history database for the weather conditions in past years. The results will help you decide how hot, cold, wet, or windy it might be!

Date:

Astronomy

Aug. 06, 2007 Rise Set
Actual Time 6:16 AM PDT 8:11 PM PDT
Civil Twilight 5:47 AM PDT 8:39 PM PDT
Nautical Twilight 5:13 AM PDT 9:14 PM PDT
Astronomical Twilight 4:36 AM PDT 9:51 PM PDT
Moon No Moon Rise 3:05 PM PDT (8/6)
Length of Visible Light 14h 51m
Length of Day
13h 54m
Last Quarter, 40% of the Moon is Illuminated
Aug 6
Last Quarter
Aug 12
New
Aug 20
First Quarter
Aug 28
Full
Sep 3
Last Quarter

Hourly Weather History & Observations

Time (PDT) Temp. Dew Point Humidity Pressure Visibility Wind Dir Wind Speed Gust Speed Precip Events Conditions
12:56 AM 60.1 °F 51.1 °F 72% 30.01 in 10.0 mi West 4.6 mph - N/A   Overcast
1:56 AM 60.1 °F 51.1 °F 72% 30.01 in 10.0 mi NW 4.6 mph - N/A   Overcast
2:56 AM 60.1 °F 51.1 °F 72% 30.00 in 10.0 mi WNW 3.5 mph - N/A   Overcast
3:56 AM 60.1 °F 51.1 °F 72% 30.00 in 10.0 mi WNW 3.5 mph - N/A   Overcast
4:56 AM 60.1 °F 50.0 °F 69% 30.00 in 10.0 mi WSW 6.9 mph - N/A   Overcast
5:56 AM 60.1 °F 50.0 °F 69% 30.01 in 10.0 mi SW 5.8 mph - N/A   Overcast
6:56 AM 60.1 °F 51.1 °F 72% 30.02 in 10.0 mi SW 5.8 mph - N/A   Overcast
7:56 AM 61.0 °F 51.1 °F 70% 30.04 in 10.0 mi West 4.6 mph - N/A   Overcast
8:56 AM 61.0 °F 51.1 °F 70% 30.05 in 10.0 mi Calm Calm - N/A   Overcast
9:56 AM 62.1 °F 48.9 °F 62% 30.05 in 10.0 mi WNW 6.9 mph - N/A   Overcast
10:26 AM 62.6 °F 48.2 °F 59% 30.05 in 10.0 mi NW 6.9 mph - N/A   Overcast
10:56 AM 64.0 °F 48.9 °F 58% 30.06 in 10.0 mi West 5.8 mph - N/A   Overcast
11:56 AM 64.9 °F 48.9 °F 56% 30.06 in 10.0 mi West 5.8 mph - N/A   Overcast
12:56 PM 68.0 °F 48.0 °F 49% 30.05 in 10.0 mi WSW 5.8 mph - N/A   Mostly Cloudy
1:56 PM 68.0 °F 48.9 °F 50% 30.04 in 10.0 mi Variable 5.8 mph 18.4 mph N/A   Scattered Clouds
2:56 PM 69.1 °F 48.9 °F 49% 30.03 in 10.0 mi NW 9.2 mph 18.4 mph N/A   Clear
3:56 PM 69.1 °F 48.9 °F 49% 30.02 in 10.0 mi NW 11.5 mph 18.4 mph N/A   Clear
4:56 PM 69.1 °F 48.9 °F 49% 30.00 in 10.0 mi NNW 13.8 mph 19.6 mph N/A   Clear
5:56 PM 66.0 °F 48.0 °F 52% 30.00 in 10.0 mi NW 10.4 mph 19.6 mph N/A   Clear
6:56 PM 64.0 °F 48.0 °F 56% 30.01 in 10.0 mi WNW 12.7 mph 18.4 mph N/A   Clear
7:56 PM 62.1 °F 46.9 °F 58% 30.02 in 10.0 mi NW 12.7 mph 18.4 mph N/A   Clear
8:56 PM 61.0 °F 48.0 °F 62% 30.02 in 10.0 mi West 3.5 mph - N/A   Clear
9:56 PM 60.1 °F 46.9 °F 62% 30.03 in 10.0 mi West 4.6 mph - N/A   Clear
10:56 PM 59.0 °F 48.0 °F 67% 30.03 in 10.0 mi West 3.5 mph - N/A   Clear
11:56 PM 59.0 °F 48.9 °F 69% 30.03 in 10.0 mi Calm Calm - N/A   Clear